Location: Recife
(8.0585°S, 34.8848°W)
Time: 16:53:55
(UTC-03:00)

N. Korean satellite - Visible Passes

Search period start: 24 September 2021 00:00
Search period end: 04 October 2021 00:00
Orbit: 448 x 498 km, 97.3° (Epoch: 23 September)

Date Brightness Start Highest point End Pass type
(mag) Time Alt. Az. Time Alt. Az. Time Alt. Az.
24 Sep 6.7 04:22:11 10° N 04:25:43 53° W 04:29:20 10° SSW visible
25 Sep 7.7 03:54:32 10° NNE 03:58:02 47° ESE 04:01:35 10° S visible
26 Sep 9.6 03:27:56 10° ENE 03:30:22 17° ESE 03:32:49 10° SE visible
27 Sep 7.2 04:32:13 10° NNW 04:35:35 35° W 04:38:59 10° SSW visible
28 Sep 6.8 04:04:13 10° NNE 04:07:50 72° E 04:11:31 10° S visible
29 Sep 9.1 03:37:08 10° NE 03:40:07 24° ESE 03:43:09 10° SSE visible
01 Oct 6.5 04:13:55 10° N 04:17:34 75° W 04:21:14 10° SSW visible
02 Oct 8.4 03:46:28 10° NE 03:49:48 34° ESE 03:53:10 10° SSE visible
03 Oct 10.0 03:20:23 10° ENE 03:22:05 13° ESE 03:23:47 10° SE visible
